Wind_Speed
23 23 23 23 23 23 23 24 24 24 24 23 23 22 22 21 21 21 21 20 20 21 21 21 22 22 22 23 23 23 23 23 24 24 24 23 23 23 23 23 23 24 24
22 22 22 21 21 22 22 23 23 23 23 21 22 21 21 21 20 20 20 20 20 21 22 22 22 22 21 21 21 22 23 23 23 23 22 22 22 22 22 22 22 23 23
22 22 21 21 21 21 20 20 20 20 19 20 20 19 19 19 20 20 20 21 21 22 22 22 21 21 21 21 22 22 23 23 22 21 20 20 21 21 21 21 21 21 21
20 20 20 20 20 19 18 19 19 19 19 19 18 18 18 18 18 19 20 21 22 21 21 21 20 20 20 21 21 22 22 22 21 20 20 20 20 20 20 20 19 19 19
19 19 18 18 18 18 17 18 18 17 17 17 17 17 18 18 18 19 20 21 21 20 20 19 19 19 19 20 20 20 20 20 19 20 20 19 19 19 19 19 19 19 19
18 17 17 17 17 16 16 16 17 16 17 17 17 17 18 18 19 19 20 20 20 19 19 19 18 18 19 19 19 18 18 17 17 17 17 18 18 19 19 19 19 19 19
17 16 16 15 15 15 15 16 16 17 17 18 18 18 18 18 19 19 19 19 18 18 18 18 18 17 17 17 17 17 17 16 16 16 16 17 17 18 18 19 19 19 18
16 15 14 14 15 15 15 16 17 17 18 18 17 18 18 18 18 19 19 18 18 17 17 16 16 16 17 17 17 16 15 15 15 15 15 16 16 16 17 17 18 18 18
14 14 14 14 15 15 15 16 17 17 17 17 17 18 18 19 19 19 18 18 17 17 16 16 16 16 16 16 15 14 13 12 12 13 13 14 15 15 15 16 17 18 18
12 13 13 14 14 14 15 16 17 17 17 17 17 18 18 19 19 18 17 17 16 16 16 16 16 16 15 14 14 13 12 11 11 11 12 12 13 14 14 15 16 17 18
11 12 13 14 14 14 15 16 16 17 17 17 17 18 18 18 18 17 17 16 16 16 16 16 16 15 14 13 12 12 11 10 10 10 11 11 11 12 13 14 14 16 17
10 11 12 13 13 14 15 16 16 17 17 17 17 17 18 18 18 17 16 16 16 16 16 15 14 14 13 12 12 11 10 10 10 9 10 10 11 11 11 12 13 15 16
10 10 12 12 12 13 14 15 16 16 17 17 17 17 18 18 18 17 17 16 16 16 15 15 14 13 13 12 12 12 11 10 10 10 10 10 11 11 12 13 15 16 17
9 10 11 11 12 13 14 15 15 15 16 17 17 17 17 18 18 17 16 16 16 15 15 15 14 14 13 12 12 11 11 11 11 11 12 12 12 12 13 14 15 16 16
9 9 10 11 12 13 14 15 15 16 17 17 17 17 17 18 18 17 17 16 16 16 16 15 15 14 13 13 12 11 11 12 12 12 13 13 13 13 13 14 15 16 17
8 9 11 11 12 13 14 14 15 16 16 17 17 17 17 18 18 18 18 17 16 15 15 15 15 14 14 14 13 13 14 14 13 14 14 14 14 14 14 14 15 15 16
8 10 11 12 12 13 14 15 15 16 16 17 18 18 19 19 19 19 19 18 17 16 16 16 15 15 15 15 15 15 15 15 15 15 16 16 16 15 15 15 16 16 16
9 10 11 12 13 13 14 15 16 16 17 18 18 18 19 19 20 19 19 19 18 18 18 18 16 16 16 16 16 16 16 17 17 17 16 16 16 16 17 17 17 17 17
9 10 12 12 13 14 15 16 17 17 18 19 19 19 19 19 19 20 20 20 20 20 19 18 18 19 18 17 16 16 17 18 18 18 18 18 18 18 18 18 18 17 18
10 11 12 13 14 16 17 18 18 18 19 19 19 19 20 19 20 20 20 20 20 21 20 20 20 20 19 18 18 18 18 18 19 19 19 19 19 19 19 19 18 18 19
11 12 13 15 16 17 18 19 19 19 20 20 20 20 21 20 20 21 20 21 21 21 21 21 22 21 21 20 20 20 19 19 20 20 20 21 21 21 20 20 20 20 20
12 13 15 16 17 18 19 20 20 20 20 20 20 20 20 21 22 22 22 23 23 24 23 23 23 22 22 22 21 22 22 22 22 22 23 23 23 23 23 23 22 22 22
13 14 15 16 17 18 19 20 21 21 21 21 22 22 21 22 23 23 24 25 25 25 25 25 24 24 23 23 23 24 24 24 25 25 25 25 25 25 25 25 25 24 23
13 14 15 16 18 19 20 21 21 21 21 22 22 22 22 23 24 25 26 26 26 26 26 26 26 26 26 26 26 26 26 27 27 26 26 26 27 27 26 26 26 26 25
14 15 16 17 19 20 21 21 22 22 22 22 22 23 23 24 25 26 27 27 28 27 28 28 27 27 28 28 28 28 28 28 27 28 28 27 27 27 27 27 26 26 25
15 16 17 19 20 21 22 22 22 22 23 23 24 24 25 26 27 28 29 29 29 29 30 30 30 29 29 29 29 28 29 29 29 29 28 28 27 27 27 27 26 26 25
Wind_Direction
307 309 309 306 305 303 302 304 305 307 308 308 307 309 310 309 307 305 305 305 304 304 303 301 297 293 291 288 286 284 282 279 278 275 273 271 269 268 268 267 265 263 262
306 309 308 307 308 309 308 308 308 307 309 309 308 308 309 309 309 307 307 308 306 306 305 302 300 297 293 291 289 286 284 281 278 273 272 271 269 269 268 268 266 264 262
306 308 309 311 312 312 312 312 313 313 312 313 312 310 311 311 311 310 309 310 307 306 305 304 302 299 296 293 291 288 285 282 277 273 271 270 269 269 267 267 267 264 261
306 308 309 310 314 315 315 315 315 315 316 318 318 317 316 316 316 314 314 312 310 308 307 306 303 301 297 294 292 289 286 282 278 274 272 270 269 268 267 266 264 262 261
305 309 310 313 316 317 318 320 321 323 324 324 323 322 321 321 320 319 319 318 314 311 309 308 305 304 301 298 296 293 289 285 282 276 272 269 269 268 267 264 262 261 260
306 311 313 316 318 320 319 322 325 326 327 327 326 325 324 324 323 322 322 320 319 317 316 314 311 308 306 304 301 296 292 289 284 278 274 270 269 268 267 264 262 259 259
310 313 316 318 322 323 323 324 325 325 325 327 326 327 327 326 325 324 323 323 322 321 320 319 316 314 313 311 307 302 296 290 285 282 276 273 270 269 267 264 262 260 260
310 313 317 320 323 324 325 326 328 328 328 328 328 329 329 329 328 327 326 324 323 322 322 321 321 319 316 313 310 305 298 293 287 282 277 274 272 271 269 265 263 261 259
310 314 316 319 320 323 325 328 331 330 329 330 331 331 330 330 330 329 329 328 325 324 323 323 324 323 319 318 316 312 306 299 292 285 282 280 277 276 272 267 265 263 260
310 316 319 321 323 326 328 330 333 334 333 333 333 333 332 333 334 334 335 334 331 328 327 326 326 325 324 323 324 322 316 310 304 299 291 285 281 280 279 274 269 266 264
313 317 319 323 326 328 329 332 334 336 337 337 337 336 336 336 337 337 337 337 336 334 333 331 331 332 331 328 327 325 322 318 311 306 302 295 290 287 280 275 273 270 267
320 322 324 324 325 328 331 334 336 337 337 338 338 338 338 338 339 339 340 340 340 338 337 338 337 336 334 332 331 329 326 323 319 316 309 304 298 291 283 278 278 274 270
334 333 332 332 333 335 337 338 338 338 341 341 340 341 342 342 341 341 340 340 341 340 341 343 343 342 339 336 335 333 329 325 321 318 315 310 303 297 289 283 281 280 277
341 342 343 343 342 342 341 342 342 342 343 345 345 346 348 347 346 347 345 344 345 346 346 346 346 344 342 340 339 336 333 330 325 321 317 312 307 302 296 291 287 283 278
345 347 347 347 347 345 345 345 345 345 346 348 349 350 350 349 348 347 346 344 343 342 343 341 340 339 339 338 334 332 328 327 327 324 321 317 311 306 303 298 293 288 283
351 351 349 346 347 349 349 349 349 349 348 348 349 348 347 346 346 346 345 345 343 340 338 338 338 338 335 332 330 330 329 326 323 322 321 319 316 311 306 303 301 298 294
351 350 348 349 351 351 350 349 348 347 348 349 348 348 346 345 344 344 344 343 341 338 337 337 336 335 333 330 327 325 324 324 322 319 317 314 312 310 306 304 303 301 300
348 347 347 349 349 348 347 347 346 346 346 347 345 345 344 343 343 343 342 341 339 337 335 334 332 331 329 327 326 326 323 320 319 319 318 316 314 312 310 306 303 301 300
345 344 343 346 346 344 344 344 344 344 343 343 343 343 343 342 341 340 340 340 339 337 337 335 332 330 327 324 322 323 321 319 317 316 317 315 311 310 310 309 307 304 302
339 340 340 341 341 341 341 341 341 341 340 340 341 341 340 339 339 339 340 339 337 336 335 334 333 332 328 323 321 321 319 319 318 316 314 314 312 310 309 308 307 307 306
336 338 338 339 339 338 338 338 338 339 338 338 339 339 338 338 337 338 338 337 335 335 334 333 332 331 328 325 323 322 320 318 316 315 314 313 313 312 310 308 307 306 305
335 336 337 337 337 337 338 338 339 339 339 338 338 338 337 338 338 338 336 335 333 332 331 329 328 327 325 323 320 319 318 317 315 312 310 310 309 308 307 306 305 303 301
336 337 338 338 338 339 340 341 341 340 339 338 337 336 336 336 335 335 333 331 330 329 328 327 325 323 322 320 319 318 316 313 311 310 309 308 307 306 306 305 303 301 300
340 340 340 339 338 338 339 339 339 338 337 336 336 335 335 334 333 333 332 332 331 329 327 325 322 320 318 317 316 315 314 313 312 311 308 307 307 306 305 302 301 300 298
340 339 340 340 340 339 339 338 338 338 337 337 336 335 334 333 332 332 332 331 330 328 326 323 321 319 318 317 316 315 313 312 312 312 309 307 307 307 305 304 302 300 298
337 339 341 341 340 339 339 338 338 337 334 334 334 333 333 333 332 332 331 330 329 328 327 325 322 321 320 318 317 315 313 313 312 313 312 310 308 308 306 305 304 302 300
Height
5787 5785 5781 5779 5776 5773 5771 5768 5765 5762 5760 5757 5754 5751 5749 5746 5744 5741 5739 5736 5734 5731 5729 5727 5724 5723 5721 5720 5719 5718 5718 5717 5717 5716 5716 5716 5716 5717 5717 5718 5719 5720 5721
5783 5781 5777 5774 5772 5769 5766 5763 5761 5758 5755 5752 5749 5747 5745 5742 5739 5737 5734 5731 5729 5726 5724 5721 5719 5717 5716 5714 5713 5712 5711 5710 5710 5710 5710 5709 5709 5710 5710 5711 5712 5713 5714
5779 5777 5773 5770 5767 5764 5761 5759 5756 5753 5750 5748 5745 5743 5740 5738 5735 5732 5729 5727 5724 5722 5719 5717 5714 5712 5710 5708 5707 5706 5704 5703 5703 5703 5703 5703 5703 5703 5704 5704 5705 5706 5707
5775 5773 5770 5767 5764 5761 5758 5755 5753 5750 5747 5744 5742 5739 5736 5734 5731 5728 5725 5722 5719 5717 5714 5711 5709 5707 5705 5703 5701 5699 5698 5697 5696 5696 5697 5697 5697 5697 5698 5698 5699 5700 5701
5771 5769 5766 5763 5760 5758 5755 5752 5750 5747 5744 5741 5739 5736 5733 5730 5727 5724 5721 5718 5714 5711 5709 5706 5704 5702 5699 5697 5696 5694 5692 5691 5690 5690 5690 5691 5691 5691 5692 5693 5694 5694 5695
5768 5765 5762 5760 5758 5755 5753 5750 5747 5744 5742 5739 5736 5733 5730 5727 5724 5720 5717 5714 5711 5707 5705 5702 5700 5697 5695 5693 5690 5688 5687 5686 5685 5685 5685 5685 5685 5685 5686 5687 5688 5689 5690
5765 5762 5760 5757 5755 5753 5750 5748 5745 5742 5739 5736 5733 5730 5727 5724 5720 5717 5714 5710 5707 5704 5701 5699 5696 5693 5691 5688 5686 5684 5682 5681 5680 5680 5680 5680 5680 5680 5680 5681 5682 5682 5683
5762 5759 5757 5755 5753 5751 5748 5746 5743 5740 5737 5734 5731 5728 5724 5721 5717 5714 5711 5707 5704 5701 5698 5696 5693 5690 5687 5685 5682 5680 5678 5676 5675 5675 5675 5675 5675 5675 5675 5676 5676 5677 5678
5759 5757 5755 5753 5751 5749 5746 5744 5741 5738 5735 5732 5729 5725 5722 5718 5715 5711 5708 5704 5701 5699 5696 5693 5690 5687 5685 5682 5679 5677 5675 5673 5672 5671 5670 5670 5670 5670 5670 5671 5671 5672 5673
5757 5755 5753 5751 5749 5747 5744 5742 5739 5736 5733 5730 5727 5723 5720 5716 5713 5709 5706 5702 5699 5696 5693 5690 5688 5685 5682 5679 5677 5674 5672 5671 5669 5668 5667 5666 5666 5666 5665 5666 5667 5667 5668
5754 5753 5751 5750 5747 5745 5743 5740 5737 5734 5731 5728 5725 5721 5718 5714 5711 5707 5704 5701 5698 5694 5691 5688 5685 5682 5679 5677 5675 5672 5670 5669 5667 5666 5665 5664 5663 5662 5662 5662 5663 5663 5664
5752 5751 5749 5748 5745 5743 5741 5738 5736 5733 5730 5727 5724 5720 5716 5713 5709 5706 5702 5699 5696 5693 5690 5687 5683 5681 5678 5676 5673 5671 5669 5667 5665 5664 5662 5661 5660 5660 5659 5659 5659 5659 5659
5751 5749 5748 5746 5744 5742 5739 5737 5734 5731 5728 5725 5722 5719 5715 5711 5708 5704 5701 5698 5694 5691 5688 5685 5682 5679 5677 5674 5672 5670 5668 5666 5664 5662 5661 5659 5658 5657 5656 5656 5655 5655 5655
5750 5748 5746 5744 5743 5741 5738 5736 5733 5730 5727 5724 5720 5717 5714 5710 5707 5703 5700 5696 5693 5690 5687 5684 5681 5678 5676 5673 5671 5669 5666 5664 5662 5661 5659 5657 5655 5654 5653 5652 5651 5650 5650
5749 5748 5746 5744 5742 5740 5737 5734 5732 5729 5725 5722 5719 5716 5713 5709 5706 5702 5699 5695 5692 5689 5686 5683 5680 5677 5675 5672 5670 5668 5665 5663 5661 5659 5656 5654 5653 5651 5650 5648 5647 5646 5645
5749 5747 5745 5744 5741 5739 5736 5734 5731 5728 5725 5721 5718 5715 5711 5708 5704 5701 5697 5694 5691 5688 5685 5682 5679 5676 5673 5671 5668 5666 5664 5661 5659 5656 5654 5652 5650 5648 5646 5645 5643 5641 5640
5748 5747 5745 5743 5740 5738 5736 5733 5730 5727 5724 5721 5717 5714 5710 5707 5703 5700 5696 5693 5690 5686 5683 5680 5677 5674 5672 5669 5666 5664 5662 5659 5656 5654 5651 5649 5646 5644 5642 5641 5639 5637 5635
5748 5746 5744 5742 5740 5737 5735 5732 5729 5726 5723 5720 5716 5713 5710 5706 5702 5699 5695 5692 5689 5685 5682 5679 5675 5672 5670 5667 5664 5661 5659 5656 5654 5651 5648 5645 5643 5640 5638 5636 5634 5632 5630
5747 5745 5743 5741 5739 5736 5734 5731 5728 5725 5722 5718 5715 5711 5708 5705 5701 5697 5694 5690 5687 5683 5680 5676 5673 5670 5667 5664 5661 5658 5656 5653 5650 5647 5645 5642 5639 5636 5634 5631 5629 5627 5624
5746 5745 5743 5740 5738 5735 5732 5729 5726 5723 5720 5716 5713 5710 5706 5702 5699 5696 5692 5688 5685 5681 5677 5674 5670 5667 5664 5661 5658 5655 5652 5649 5647 5643 5641 5638 5635 5632 5629 5627 5624 5622 5619
5745 5744 5742 5739 5736 5734 5731 5728 5724 5721 5718 5714 5711 5707 5704 5700 5697 5693 5690 5686 5682 5678 5675 5671 5667 5664 5661 5657 5654 5651 5648 5645 5642 5639 5636 5633 5630 5627 5625 5622 5619 5616 5613
5744 5742 5740 5737 5735 5732 5729 5725 5722 5719 5715 5712 5709 5705 5702 5698 5695 5691 5687 5683 5679 5675 5672 5668 5664 5660 5657 5653 5650 5647 5644 5640 5637 5634 5631 5628 5625 5622 5619 5616 5613 5610 5607
5742 5740 5738 5735 5733 5730 5727 5723 5720 5716 5713 5710 5706 5702 5699 5695 5691 5687 5683 5679 5675 5671 5667 5664 5660 5656 5652 5649 5645 5641 5638 5634 5631 5627 5624 5621 5618 5615 5612 5609 5606 5603 5601
5741 5738 5736 5734 5731 5728 5724 5721 5718 5714 5710 5707 5703 5699 5696 5692 5688 5683 5679 5675 5671 5667 5662 5658 5654 5650 5646 5643 5639 5635 5631 5628 5624 5620 5617 5614 5610 5607 5604 5601 5598 5596 5593
5739 5737 5735 5732 5729 5726 5722 5719 5715 5711 5708 5704 5700 5696 5692 5688 5684 5679 5675 5671 5666 5661 5657 5653 5648 5644 5640 5636 5632 5628 5624 5620 5616 5612 5609 5606 5602 5599 5596 5593 5590 5587 5585
5738 5735 5732 5730 5727 5723 5720 5716 5712 5708 5705 5700 5697 5693 5689 5685 5680 5675 5671 5666 5661 5656 5651 5647 5642 5637 5633 5629 5625 5621 5617 5613 5609 5605 5601 5598 5595 5591 5588 5585 5582 5579 5577